Location: Antioch
(38.0049°N, 121.8058°W)
Time: 02:56:19
(UTC+00:00)

IRS-1D - Pass Details

Date: 11 February 2026
Orbit: 736 x 811 km, 98.8° (Epoch: 13 March)

Event Time Altitude Azimuth Distance (km) Brightness Sun altitude
Rises 13:10:37 0° 14° (NNE) 3,301 7.0 -22.4°
Reaches altitude 10° 13:12:58 10° 16° (NNE) 2,357 6.2 -21.9°
Maximum altitude 13:18:11 80° 103° (ESE) 793 3.6 -20.9°
Drops below altitude 10° 13:23:15 10° 191° (S) 2,292 5.9 -19.9°
Sets 13:25:31 0° 192° (SSW) 3,203 6.6 -19.4°
